FW0225 Weather Reports


time (UTC)temp
C
wind
direction
speed
KPH
gust
KPH
rain 1hr
cm
rain 24hr
cm
rain mn
cm
humidity
%
barometer
mb
20260507052540 14 279 1.6 6.4 0.00 16.31 0.00 94 1011.7
20260507052020 14 278 3.2 6.4 0.00 16.31 0.00 94 1011.7
20260507051523 14 273 3.2 6.4 0.00 16.31 0.00 94 1011.6
20260507051022 14 270 3.2 6.4 0.00 16.31 0.00 94 1011.5
20260507050546 14 267 0.0 3.2 0.00 16.31 0.00 95 1011.5
20260507050016 14 267 0.0 3.2 0.00 16.31 0.00 94 1011.4
20260507045540 14 267 0.0 3.2 0.00 16.31 0.00 94 1011.3
20260507045019 14 267 0.0 4.8 0.00 16.31 0.00 94 1011.3
20260507044522 14 267 3.2 4.8 0.00 16.31 0.00 94 1011.2
20260507044019 14 265 1.6 4.8 0.00 16.31 0.00 94 1011.2
20260507043542 14 264 0.0 3.2 0.00 16.31 0.00 94 1011.2
20260507043031 14 264 1.6 3.2 0.00 16.31 0.00 94 1011.1
20260507042514 14 264 0.0 3.2 0.00 16.31 0.00 94 1011.1
20260507042033 14 264 0.0 1.6 0.00 16.31 0.00 94 1011.0
20260507041516 14 264 0.0 1.6 0.00 16.31 0.00 94 1011.1
20260507041035 14 264 0.0 3.2 0.00 16.31 0.00 94 1011.0
20260507040516 15 264 1.6 4.8 0.00 16.31 0.00 94 1010.9
20260507040027 15 263 0.0 6.4 0.00 16.31 0.00 94 1010.9
20260507035529 15 262 1.6 4.8 0.00 16.31 0.00 94 1010.9
20260507035014 15 262 0.0 4.8 0.00 16.31 0.00 94 1010.8
20260507034516 15 261 3.2 4.8 0.00 16.31 0.00 94 1010.8
20260507034016 15 260 0.0 4.8 0.00 16.31 0.00 94 1010.8
20260507033518 15 260 1.6 6.4 0.00 16.31 0.00 94 1010.7
20260507033029 15 259 3.2 6.4 0.00 16.31 0.00 94 1010.8
20260507032552 15 257 0.0 1.6 0.00 16.31 0.00 94 1010.8
20260507032030 15 257 0.0 0.0 0.00 16.31 0.00 94 1010.9
20260507031514 15 257 0.0 0.0 0.00 16.31 0.00 94 1010.8
20260507031013 15 257 0.0 1.6 0.00 16.31 0.00 94 1010.8
20260507030515 15 257 0.0 1.6 0.00 16.31 0.00 94 1010.8
20260507030048 15 257 0.0 3.2 0.00 16.41 0.00 94 1010.8
20260507025528 15 257 1.6 11.3 0.00 16.41 0.00 94 1010.7
20260507025029 15 257 4.8 11.3 0.00 16.41 0.00 94 1010.8
20260507024532 15 262 3.2 4.8 0.00 16.41 0.00 94 1010.7
20260507024032 15 261 0.0 4.8 0.00 16.41 0.00 94 1010.7
20260507023535 15 261 3.2 11.3 0.00 16.41 0.00 94 1010.7
20260507023026 15 261 4.8 11.3 0.00 16.41 0.00 95 1010.7
20260507022529 15 256 4.8 11.3 0.00 16.41 0.00 95 1010.7
20260507022014 15 252 6.4 11.3 0.00 16.41 0.00 95 1010.7
20260507021517 15 250 4.8 11.3 0.00 16.41 0.00 95 1010.7
20260507021016 15 246 3.2 6.4 0.00 16.41 0.00 95 1010.6
20260507020517 15 246 1.6 6.4 0.00 16.41 0.00 95 1010.7
20260507020029 15 246 3.2 6.4 0.00 16.61 0.00 95 1010.7
20260507015552 15 244 1.6 3.2 0.00 16.61 0.00 95 1010.7
20260507015031 15 244 1.6 3.2 0.00 16.61 0.00 95 1010.7
20260507014533 15 244 0.0 6.4 0.00 16.61 0.00 95 1010.7
20260507014031 15 244 1.6 6.4 0.00 16.61 0.00 95 1010.7
20260507013536 15 243 1.6 8.0 0.00 16.61 0.00 95 1010.8
20260507013025 15 244 3.2 8.0 0.00 16.61 0.00 95 1010.8
20260507012529 15 242 1.6 3.2 0.00 16.61 0.00 95 1010.7
20260507012030 15 242 0.0 1.6 0.00 16.61 0.00 95 1010.6
20260507011533 15 242 0.0 1.6 0.00 16.61 0.00 95 1010.7
20260507011033 15 242 0.0 3.2 0.00 16.61 0.00 95 1010.7
20260507010518 15 242 1.6 4.8 0.00 16.61 0.00 95 1010.7
20260507010030 15 242 1.6 4.8 0.00 22.40 0.00 95 1010.6
20260507005554 15 242 0.0 1.6 0.00 22.40 0.00 95 1010.6
20260507005013 15 242 0.0 1.6 0.00 22.40 0.00 95 1010.7
20260507004536 15 242 0.0 3.2 0.00 22.40 0.00 95 1010.6
20260507004017 15 242 0.0 3.2 0.00 22.40 0.00 95 1010.6
20260507003521 15 242 1.6 3.2 0.00 22.40 0.00 95 1010.7
20260507003014 15 242 0.0 3.2 0.00 22.40 0.00 95 1010.7
20260507002516 15 242 1.6 8.0 0.00 22.40 0.00 95 1010.7
20260507002015 15 242 1.6 8.0 0.00 22.40 0.00 95 1010.8
20260507001518 15 242 1.6 6.4 0.00 22.40 0.00 95 1010.8
20260507001018 15 242 1.6 6.4 0.00 22.40 0.00 95 1010.8
20260507000522 15 242 0.0 0.0 0.00 22.40 0.00 95 1010.8
20260507000014 15 242 0.0 0.0 0.00 24.79 0.00 95 1010.8
20260506235518 15 242 0.0 1.6 0.00 24.79 0.00 95 1010.8
20260506235018 15 242 0.0 3.2 0.00 24.79 0.00 95 1010.8
20260506234525 15 242 0.0 3.2 0.00 24.79 0.00 95 1010.8
20260506234026 15 242 0.0 3.2 0.00 24.79 0.00 95 1010.9
20260506233529 15 242 0.0 4.8 0.00 24.79 0.00 95 1010.9
20260506233020 15 242 3.2 6.4 0.00 24.79 0.00 95 1010.9
20260506232525 15 242 4.8 6.4 0.00 24.79 0.00 94 1011.0
20260506232045 15 243 1.6 3.2 0.00 24.79 0.00 94 1011.0
20260506231526 15 243 0.0 4.8 0.00 24.79 0.00 94 1011.1
20260506231047 15 243 1.6 4.8 0.00 24.79 0.00 94 1011.1
20260506230530 15 243 1.6 4.8 0.00 24.79 0.00 94 1011.1
20260506230022 15 243 0.0 3.2 0.00 24.79 0.00 94 1011.2
20260506225525 15 243 0.0 3.2 0.00 24.79 0.00 94 1011.2
20260506225024 15 243 0.0 3.2 0.00 24.79 0.00 94 1011.1
20260506224548 15 243 0.0 4.8 0.00 24.79 0.00 94 1011.1
20260506224026 15 243 1.6 8.0 0.00 24.79 0.00 94 1011.0
20260506223529 15 243 3.2 8.0 0.00 24.79 0.00 94 1011.0
20260506223019 15 239 3.2 12.9 0.00 24.79 0.00 94 1010.9
20260506222542 15 237 4.8 12.9 0.00 24.79 0.00 95 1011.0
20260506222021 15 229 3.2 8.0 0.10 24.79 0.00 95 1011.0
20260506221529 15 226 3.2 6.4 0.10 24.79 0.00 95 1011.0
20260506221031 15 225 3.2 4.8 0.10 24.79 0.00 95 1010.9
20260506220515 15 225 3.2 4.8 0.10 24.79 0.00 95 1010.9
20260506220028 15 225 0.0 6.4 0.10 24.79 6.30 95 1010.9
20260506215532 15 225 1.6 4.8 0.10 24.79 6.30 95 1010.9
20260506215053 15 225 0.0 3.2 0.10 24.79 6.30 95 1010.9
20260506214516 15 225 1.6 4.8 0.10 24.79 6.30 94 1010.9
20260506214033 15 225 1.6 4.8 0.10 24.79 6.30 94 1010.9
20260506213516 15 225 1.6 4.8 0.10 24.79 6.30 94 1010.9
20260506213027 15 225 1.6 4.8 0.10 24.79 6.30 94 1010.9
20260506212532 15 225 3.2 4.8 0.10 24.79 6.30 94 1010.9
20260506212013 15 225 1.6 3.2 0.00 24.69 6.27 94 1010.9
20260506211517 15 225 0.0 1.6 0.00 24.69 6.27 94 1010.9
20260506211021 15 225 1.6 4.8 0.00 24.69 6.27 94 1011.0
20260506210521 15 225 1.6 4.8 0.00 24.69 6.27 94 1011.0
20260506210033 15 225 1.6 4.8 0.00 24.69 6.27 94 1011.0
20260506205515 15 225 1.6 4.8 0.00 24.69 6.27 94 1011.0
20260506205015 15 225 1.6 6.4 0.00 24.69 6.27 94 1011.0
20260506204519 15 225 1.6 6.4 0.00 24.69 6.27 94 1011.0
20260506204017 15 225 1.6 3.2 0.00 24.69 6.27 94 1011.0
20260506203521 15 225 1.6 3.2 0.00 24.69 6.27 94 1011.0
20260506203013 15 225 1.6 4.8 0.00 24.69 6.27 94 1011.0
20260506202516 15 225 1.6 4.8 0.00 24.69 6.27 94 1011.0
20260506202015 15 225 1.6 4.8 0.00 24.69 6.27 94 1011.0
20260506201517 15 225 1.6 6.4 0.00 24.69 6.27 94 1011.0
20260506201015 15 225 1.6 6.4 0.00 24.69 6.27 94 1010.9
20260506200538 15 224 3.2 6.4 0.00 24.69 6.27 94 1010.8
20260506200029 15 224 4.8 6.4 0.00 24.79 6.27 94 1010.8
20260506195530 15 225 3.2 6.4 0.00 24.79 6.27 94 1010.7
20260506195014 15 224 1.6 3.2 0.00 24.79 6.27 94 1010.6
20260506194516 15 224 0.0 3.2 0.00 24.79 6.27 94 1010.6
20260506194016 15 224 1.6 3.2 0.00 24.79 6.27 94 1010.5
20260506193519 15 224 1.6 3.2 0.41 24.79 6.27 94 1010.4
20260506193033 16 224 1.6 3.2 0.79 24.79 6.27 94 1010.3
20260506192536 16 224 1.6 4.8 1.30 24.79 6.27 94 1010.3
20260506192014 16 224 3.2 4.8 1.40 24.79 6.27 94 1010.2
20260506191517 16 223 3.2 8.0 1.60 24.79 6.27 94 1010.1
20260506191036 16 223 1.6 8.0 2.69 24.79 6.27 94 1010.0
20260506190519 16 222 3.2 6.4 2.90 24.79 6.27 94 1009.9
20260506190032 16 222 1.6 9.7 2.90 24.99 6.27 94 1009.8
20260506185513 16 218 4.8 9.7 2.90 24.99 6.27 95 1009.7
20260506185013 15 216 3.2 8.0 2.90 24.99 6.27 94 1009.6
20260506184536 15 216 1.6 6.4 2.90 24.99 6.27 94 1009.5
20260506184033 15 216 1.6 4.8 2.90 24.99 6.27 94 1009.3
20260506183515 15 215 0.0 1.6 2.49 24.61 6.17 94 1009.4
20260506183048 15 215 1.6 1.6 2.11 24.21 6.07 94 1009.5
20260506182530 15 215 0.0 3.2 1.60 23.70 5.94 94 1009.2
20260506182030 15 215 1.6 3.2 1.50 23.60 5.92 94 1009.4
20260506181534 15 215 0.0 3.2 1.19 23.29 5.84 94 1009.6
20260506181013 16 215 0.0 0.0 0.10 22.20 5.56 94 1009.6
20260506180518 15 215 0.0 1.6 0.10 22.10 5.54 94 1009.7
20260506180013 16 215 0.0 1.6 0.20 22.20 5.54 94 1009.7
20260506175516 16 215 0.0 1.6 2.90 22.20 5.54 93 1009.6
20260506175037 16 215 0.0 3.2 3.61 22.20 5.54 93 1009.6
20260506174520 16 215 1.6 3.2 3.71 22.20 5.54 93 1009.7
20260506174019 16 215 1.6 3.2 3.71 22.20 5.54 93 1009.6
20260506173522 16 215 1.6 4.8 3.71 22.20 5.54 93 1009.6
20260506173013 16 215 3.2 8.0 3.71 22.20 5.54 92 1009.6
20260506172516 16 215 3.2 9.7 3.71 22.20 5.54 92 1009.5
20260506172017 16 215 4.8 16.1 3.71 22.20 5.54 92 1009.5
20260506171519 16 214 6.4 25.7 3.71 22.20 5.54 92 1009.4
20260506171019 16 194 12.9 25.7 3.71 22.20 5.54 92 1009.2
20260506170522 16 200 4.8 12.9 3.61 22.10 5.51 93 1009.2
20260506170014 16 200 6.4 12.9 3.40 22.61 5.49 93 1009.1
20260506165516 16 240 0.0 0.0 0.61 19.81 4.75 94 1008.9
20260506165014 16 240 0.0 0.0 0.10 19.30 4.62 94 1008.7
20260506164522 16 240 0.0 0.0 0.00 19.20 4.60 93 1008.7
20260506164024 16 240 0.0 0.0 0.00 19.20 4.60 93 1008.7
20260506163528 16 240 0.0 0.0 0.00 19.20 4.60 93 1008.8
20260506163042 16 240 0.0 0.0 0.00 19.20 4.60 93 1008.9
20260506162523 16 240 0.0 0.0 0.00 19.20 4.60 93 1009.1
20260506162024 16 240 0.0 0.0 0.00 19.20 4.60 93 1009.1
20260506161549 16 240 0.0 0.0 0.00 19.20 4.60 93 1009.1
20260506161029 16 240 0.0 0.0 0.00 19.20 4.60 94 1009.1
20260506160513 16 240 0.0 0.0 0.00 19.20 4.60 94 1009.2
20260506160026 16 240 0.0 1.6 0.00 19.61 4.60 94 1009.2
20260506155530 16 240 0.0 1.6 0.00 19.61 4.60 94 1009.2
20260506155031 16 240 0.0 0.0 0.00 19.61 4.60 94 1009.3
20260506154515 16 240 0.0 0.0 0.00 19.61 4.60 94 1009.4
20260506154016 16 240 0.0 0.0 0.00 19.61 4.60 94 1009.4
20260506153518 16 240 0.0 0.0 0.00 19.61 4.60 94 1009.5
20260506153013 16 240 0.0 0.0 0.00 19.61 4.60 94 1009.6
20260506152515 16 240 0.0 0.0 0.00 19.61 4.60 94 1009.7
20260506152035 16 240 0.0 1.6 0.00 19.61 4.60 94 1009.7
20260506151519 16 240 0.0 1.6 0.00 19.61 4.60 94 1009.7
20260506151019 16 240 0.0 1.6 0.00 19.61 4.60 94 1009.9
20260506150521 16 240 0.0 1.6 0.00 19.61 4.60 94 1009.8
20260506150013 16 240 0.0 1.6 0.00 19.89 4.60 94 1009.9
20260506145537 16 240 0.0 1.6 0.00 19.89 4.60 94 1009.9
20260506145014 16 240 0.0 3.2 0.00 19.89 4.60 94 1010.0
20260506144519 16 240 0.0 3.2 0.00 19.89 4.60 94 1010.0
20260506144021 16 240 1.6 3.2 0.00 19.89 4.60 94 1010.0
20260506143525 16 240 1.6 3.2 0.00 19.89 4.60 94 1010.1
20260506143018 16 240 0.0 1.6 0.00 19.89 4.60 94 1010.0
20260506142519 16 240 0.0 1.6 0.00 19.89 4.60 94 1010.1
20260506142037 16 240 0.0 0.0 0.00 19.89 4.60 94 1010.1
20260506141520 16 240 0.0 0.0 0.00 19.89 4.60 94 1010.2
20260506141019 16 240 0.0 0.0 0.00 19.89 4.60 94 1010.3
20260506140521 16 240 0.0 0.0 0.00 19.89 4.60 94 1010.3
20260506140015 16 240 0.0 1.6 0.00 19.89 4.60 94 1010.3
20260506135536 16 240 0.0 1.6 0.00 19.89 4.60 93 1010.4
20260506135035 16 240 0.0 1.6 0.00 19.89 4.60 93 1010.5
20260506134518 16 240 0.0 1.6 0.10 19.89 4.60 93 1010.5
20260506134036 16 240 0.0 1.6 0.10 19.89 4.60 93 1010.5
20260506133518 16 240 0.0 3.2 0.20 19.89 4.60 93 1010.6
20260506133030 15 240 1.6 3.2 0.51 19.89 4.60 93 1010.7
20260506132513 15 240 1.6 4.8 0.79 19.89 4.60 93 1010.7
20260506132013 15 240 1.6 11.3 0.79 19.89 4.60 93 1010.8
20260506131516 15 241 4.8 11.3 0.79 19.89 4.60 93 1010.8
20260506131015 15 246 1.6 8.0 0.79 19.89 4.60 93 1010.9
20260506130539 15 246 1.6 8.0 0.89 19.89 4.60 94 1010.9
20260506130030 15 246 1.6 16.1 0.89 20.19 4.60 93 1010.9
20260506125513 15 247 6.4 19.3 0.99 20.19 4.60 93 1011.0
20260506125012 15 232 8.0 19.3 0.99 20.19 4.60 94 1010.9
20260506124538 15 255 3.2 6.4 0.99 20.09 4.57 94 1010.8
20260506124016 15 255 1.6 6.4 1.19 20.09 4.57 94 1010.7
20260506123519 15 254 3.2 6.4 1.09 19.89 4.52 94 1010.7
20260506123031 15 254 3.2 4.8 0.89 19.71 4.47 94 1010.8
20260506122513 15 254 0.0 3.2 0.61 19.41 4.39 94 1010.8
20260506122013 15 254 1.6 8.0 0.61 19.41 4.39 94 1010.7
20260506121515 15 254 4.8 8.0 0.61 19.41 4.39 94 1010.7
20260506121019 15 254 3.2 4.8 0.79 19.41 4.39 94 1010.7
20260506120543 15 254 1.6 4.8 0.79 19.30 4.37 94 1010.8
20260506120014 15 254 1.6 4.8 0.89 19.61 4.37 94 1010.8
20260506115538 15 254 1.6 6.4 0.79 19.51 4.34 94 1010.9
20260506115016 15 254 1.6 6.4 0.71 19.41 4.32 94 1010.9
20260506114518 15 255 1.6 4.8 0.71 19.41 4.32 94 1010.8
20260506114017 15 255 3.2 6.4 0.51 19.20 4.27 94 1010.9
20260506113539 15 255 1.6 6.4 0.41 19.10 4.24 94 1010.9
20260506113029 15 254 0.0 4.8 0.41 19.10 4.24 94 1010.9
20260506112513 15 254 3.2 4.8 0.41 19.10 4.24 94 1010.9
20260506112013 15 254 1.6 3.2 0.51 19.10 4.24 94 1010.9
20260506111516 15 254 1.6 3.2 0.51 19.00 4.22 94 1011.0
20260506111036 15 254 1.6 3.2 0.41 18.90 4.19 94 1010.9
20260506110538 15 254 1.6 4.8 0.41 18.80 4.17 94 1010.9
20260506110029 15 254 1.6 4.8 0.41 19.61 4.14 94 1011.0
20260506105514 15 254 1.6 4.8 0.41 19.61 4.14 94 1011.1
20260506105012 15 254 3.2 8.0 0.41 19.61 4.14 94 1011.1
20260506104517 15 254 3.2 8.0 0.41 19.61 4.14 93 1011.1
20260506104017 15 255 3.2 6.4 0.41 19.61 4.14 93 1011.1
20260506103519 15 254 1.6 4.8 0.41 19.61 4.14 93 1011.1
20260506103031 15 254 1.6 4.8 0.41 19.61 4.14 93 1011.1
20260506102518 15 254 1.6 6.4 0.41 19.61 4.14 93 1011.2
20260506102018 15 253 3.2 11.3 0.30 19.51 4.11 93 1011.2
20260506101522 15 252 4.8 12.9 0.20 19.41 4.09 93 1011.4
20260506101023 15 248 8.0 16.1 0.20 19.41 4.09 92 1011.4
20260506100525 15 263 8.0 16.1 0.10 19.30 4.06 93 1011.4
20260506100018 15 257 4.8 16.1 0.10 19.20 4.04 93 1011.5
20260506095521 15 261 4.8 16.1 0.20 19.20 4.04 94 1011.5
20260506095020 15 260 8.0 16.1 0.20 19.20 4.04 94 1011.4
20260506094523 15 264 8.0 16.1 0.20 19.20 4.04 95 1011.4
20260506094042 15 264 9.7 16.1 0.30 19.20 4.04 95 1011.4
20260506093525 15 229 3.2 8.0 0.41 19.20 4.04 95 1011.4
20260506093018 15 229 3.2 6.4 0.51 19.20 4.04 95 1011.4
20260506092543 15 227 3.2 8.0 0.61 19.20 4.04 95 1011.4
20260506092039 15 226 4.8 8.0 0.71 19.20 4.04 95 1011.4
20260506091520 15 223 1.6 4.8 0.79 19.20 4.04 95 1011.4
20260506091039 15 222 1.6 4.8 0.89 19.20 4.04 95 1011.4
20260506090522 15 222 1.6 4.8 1.09 19.20 4.04 95 1011.3
20260506090013 15 222 1.6 4.8 1.09 19.10 4.01 96 1011.3
20260506085518 15 222 1.6 4.8 1.30 19.00 3.99 95 1011.3
20260506085020 15 222 0.0 1.6 1.40 19.00 3.99 95 1011.3
20260506084523 15 222 0.0 3.2 1.50 19.00 3.99 95 1011.4
20260506084024 15 222 1.6 3.2 1.60 18.90 3.96 95 1011.4
20260506083526 14 222 0.0 0.0 1.60 18.80 3.94 95 1011.4
20260506083016 14 222 0.0 0.0 1.60 18.69 3.91 95 1011.4
20260506082519 14 222 0.0 0.0 1.60 18.59 3.89 95 1011.3
20260506082038 14 222 0.0 0.0 1.60 18.49 3.86 95 1011.2
20260506081540 14 222 0.0 0.0 1.60 18.39 3.84 95 1011.2
20260506081017 14 222 0.0 0.0 1.50 18.29 3.81 95 1011.3
20260506080541 14 222 0.0 0.0 1.40 18.11 3.76 95 1011.2
20260506073522 14 222 0.0 0.0 2.01 17.20 3.53 95 1011.1
20260506073019 14 222 0.0 0.0 2.11 17.09 3.51 95 1011.1
20260506072524 14 222 0.0 0.0 2.59 16.99 3.48 95 1011.2
20260506072022 14 222 0.0 0.0 3.10 16.89 3.45 95 1011.2
20260506071526 14 222 0.0 0.0 3.40 16.79 3.43 95 1011.2
20260506071048 14 222 0.0 0.0 3.91 16.79 3.43 95 1011.4
20260506070530 14 222 0.0 0.0 4.29 16.69 3.40 95 1011.4
20260506062026 14 222 0.0 0.0 1.91 13.69 2.64 95 1011.5
20260506061529 14 222 0.0 1.6 1.60 13.41 2.57 95 1011.4
20260506061049 14 222 0.0 1.6 1.09 12.90 2.44 95 1011.4
20260506060531 14 222 0.0 1.6 0.51 12.29 2.29 95 1011.3